Wind_Speed
54 55 55 56 57 57 60 63 66 70 65 56 49 50 51 51 53 56 58 60 60 57 55 53 51 47 44
58 58 58 59 59 60 62 68 73 68 70 53 53 53 52 53 53 57 60 60 57 56 54 53 52 49 48
60 60 60 61 61 63 68 72 72 67 53 50 52 54 57 60 58 60 60 58 57 55 53 51 51 47 49
64 65 65 65 69 65 73 75 75 59 50 51 54 56 54 51 54 58 57 56 56 53 51 49 50 49 49
73 71 74 74 76 74 72 58 51 47 51 52 57 54 54 56 56 55 55 57 54 54 50 50 48 47 48
80 79 84 79 69 56 55 45 44 45 48 55 54 54 55 55 57 56 55 54 54 54 52 51 51 50 47
56 53 45 45 49 48 45 45 44 45 50 52 54 56 55 53 53 56 55 54 53 51 51 50 49 47 46
52 43 39 41 43 44 48 48 49 49 50 51 52 54 51 53 53 52 52 52 52 52 50 49 49 47 47
52 51 41 43 38 42 45 48 49 51 52 53 54 53 52 52 51 51 50 51 50 51 49 50 49 48 49
47 44 39 40 40 45 49 48 49 50 51 51 52 53 51 51 52 52 52 51 50 50 51 51 51 51 52
41 42 43 43 44 46 46 47 48 51 50 50 50 50 51 52 53 54 53 52 52 52 52 52 54 55 55
41 41 44 44 43 43 44 46 48 49 49 49 50 51 52 53 54 55 54 53 53 53 54 56 58 58 59
40 41 40 39 40 42 44 45 47 49 50 51 50 50 52 54 54 55 53 55 55 57 59 61 62 62 62
38 40 41 43 44 45 47 48 49 51 50 51 53 56 58 55 54 55 55 57 58 59 59 61 63 63 64
40 41 41 41 41 42 44 46 48 50 52 55 57 56 56 55 57 58 60 62 61 62 61 62 66 65 66
35 37 40 42 43 44 44 44 45 46 47 47 50 53 56 59 62 64 64 66 66 65 62 60 64 66 67
33 36 38 38 39 41 41 42 42 41 41 44 48 53 57 61 63 64 65 64 63 63 60 60 60 64 63
Wind_Direction
265 270 275 280 284 287 288 290 295 299 301 288 289 294 290 290 297 301 305 305 304 303 302 301 300 298 296
267 271 275 280 284 284 285 290 292 296 299 284 288 292 288 288 298 304 306 303 302 302 302 300 299 295 295
268 271 275 280 282 283 286 289 293 297 282 282 287 285 290 290 298 300 302 298 301 301 300 297 295 293 296
266 269 272 273 276 280 284 287 293 287 272 284 286 289 290 290 293 296 296 299 302 299 298 297 296 295 297
263 265 268 273 278 283 288 285 279 280 275 279 283 287 287 291 294 297 298 301 300 299 299 297 295 295 298
268 272 275 278 279 273 271 270 274 276 274 277 279 286 290 292 295 297 298 298 297 298 297 297 295 297 298
272 276 273 269 263 263 269 276 278 273 277 279 283 286 288 296 295 295 297 296 296 296 296 296 296 297 299
263 254 258 254 259 263 268 274 274 276 278 283 289 290 291 291 292 294 295 296 295 295 296 296 296 296 299
259 259 259 265 260 267 273 274 276 279 283 282 284 285 288 292 294 295 296 296 295 295 296 295 296 298 301
254 256 253 258 258 260 264 270 273 277 279 282 284 285 290 292 293 294 296 296 295 296 296 294 295 298 302
257 259 263 266 269 272 273 274 277 278 282 285 286 287 289 292 292 292 293 295 296 297 298 297 299 301 303
266 264 267 270 273 274 274 277 278 282 283 283 285 288 290 291 291 292 294 295 296 299 300 300 302 304 306
264 267 269 271 273 275 276 277 278 280 282 285 288 291 291 291 292 293 297 297 299 300 300 299 302 306 307
268 269 271 271 272 274 275 278 281 282 284 287 290 290 290 290 291 293 296 299 300 302 304 303 304 305 306
272 273 274 274 276 278 280 281 283 287 289 288 289 290 291 291 294 295 296 299 302 304 305 304 303 305 306
274 277 277 277 278 278 279 281 285 288 290 293 296 296 295 295 296 298 299 300 301 302 302 303 302 304 305
266 270 271 275 277 279 281 284 287 292 297 301 301 301 301 301 300 300 301 302 302 303 303 302 302 304 305
Height
5775 5775 5774 5773 5770 5767 5764 5761 5758 5755 5751 5747 5742 5739 5735 5733 5729 5724 5718 5712 5706 5700 5695 5688 5684 5680 5676
5763 5763 5763 5760 5759 5756 5752 5750 5746 5743 5738 5735 5732 5728 5724 5721 5716 5711 5705 5700 5695 5688 5682 5677 5673 5669 5666
5751 5750 5749 5747 5746 5742 5738 5735 5732 5729 5725 5722 5719 5716 5713 5708 5704 5697 5692 5687 5682 5676 5671 5666 5662 5657 5653
5736 5736 5734 5731 5730 5728 5725 5722 5720 5714 5714 5710 5707 5704 5699 5694 5689 5684 5680 5675 5670 5665 5660 5656 5652 5646 5641
5720 5720 5719 5718 5717 5716 5712 5709 5706 5704 5702 5699 5697 5692 5687 5683 5677 5673 5667 5663 5660 5656 5650 5645 5640 5635 5629
5706 5709 5708 5706 5703 5702 5699 5697 5695 5693 5691 5687 5683 5679 5675 5670 5666 5661 5656 5652 5648 5644 5639 5634 5629 5623 5617
5693 5694 5690 5690 5688 5689 5688 5685 5682 5680 5678 5674 5670 5666 5662 5658 5654 5651 5646 5642 5637 5631 5627 5622 5618 5612 5606
5680 5680 5679 5677 5677 5677 5676 5673 5670 5667 5664 5661 5657 5654 5651 5647 5642 5638 5634 5629 5624 5619 5614 5610 5605 5599 5593
5668 5667 5666 5666 5664 5664 5663 5660 5658 5656 5654 5652 5647 5645 5640 5635 5630 5626 5622 5617 5612 5608 5602 5597 5593 5588 5580
5655 5653 5652 5651 5650 5650 5648 5647 5645 5643 5641 5639 5636 5634 5629 5624 5620 5616 5611 5606 5600 5595 5589 5584 5579 5574 5565
5639 5640 5641 5640 5639 5639 5638 5636 5634 5632 5631 5628 5625 5620 5617 5612 5608 5604 5599 5594 5588 5582 5576 5570 5565 5558 5552
5633 5632 5632 5630 5629 5628 5627 5625 5623 5622 5621 5618 5614 5609 5604 5600 5597 5592 5587 5582 5577 5569 5562 5556 5548 5541 5533
5622 5622 5621 5619 5618 5617 5616 5614 5613 5611 5609 5606 5601 5596 5593 5590 5585 5579 5573 5568 5563 5557 5549 5540 5531 5525 5519
5612 5610 5610 5609 5608 5607 5606 5604 5602 5600 5597 5593 5588 5585 5582 5577 5571 5565 5561 5554 5548 5542 5534 5522 5514 5510 5503
5601 5600 5600 5599 5598 5596 5595 5593 5590 5587 5584 5580 5577 5573 5569 5563 5558 5554 5547 5540 5534 5527 5520 5509 5496 5494 5486
5592 5591 5590 5589 5587 5585 5583 5581 5577 5575 5573 5569 5565 5559 5554 5550 5546 5540 5533 5525 5517 5510 5504 5498 5485 5476 5470
5581 5580 5579 5578 5576 5574 5572 5569 5567 5564 5560 5556 5550 5545 5540 5536 5533 5526 5518 5510 5502 5494 5488 5481 5475 5464 5457